Wetbulb
63.87 63.34 63.51 63.21 62.86 62.76 63.08 62.91 62.84 63.44 63.43 63.78 63.61 61.99 62.17 62.11 55.79 59.01 61.88 58.38 63.77 63.28 62.86 62.76 62.44 61.60 62.02 61.58 60.90 60.84 60.65 60.67 60.82
64.40 63.60 63.35 63.57 63.34 62.99 62.44 63.08 63.22 62.97 63.27 64.19 63.75 62.82 62.13 57.35 54.02 57.64 58.01 58.65 64.25 63.63 63.20 62.25 61.54 61.19 60.39 61.28 60.42 59.96 59.51 59.36 59.37
64.84 64.27 64.25 64.53 64.53 64.04 63.25 62.82 63.33 63.82 63.69 63.97 64.55 63.27 62.86 58.01 54.09 57.96 56.85 61.78 64.06 63.43 62.72 62.53 61.96 61.09 60.11 60.34 60.22 59.73 59.27 58.83 58.58
65.34 64.52 65.20 65.47 65.27 64.47 63.73 62.90 62.89 63.55 63.84 63.66 64.15 63.84 63.04 56.81 54.24 57.55 56.84 63.84 64.36 64.02 62.83 62.65 62.63 62.02 61.01 59.78 60.01 59.79 59.65 59.32 58.95
65.92 66.26 65.71 65.98 65.66 64.37 63.62 62.94 62.16 62.76 63.83 63.87 63.72 64.38 63.64 56.63 53.37 53.59 56.37 64.03 64.11 64.14 62.52 62.22 62.60 62.27 61.84 60.81 60.17 59.74 59.64 59.94 60.07
63.04 64.36 65.15 66.39 65.61 64.82 63.92 62.81 61.69 62.43 63.36 64.46 64.62 63.80 57.97 54.94 52.54 51.59 60.37 64.12 64.53 64.33 63.34 62.19 61.80 61.84 61.52 60.97 60.88 60.86 60.72 60.54 60.42
61.58 62.52 64.70 65.63 65.67 65.07 64.17 63.21 62.12 62.28 56.90 56.83 62.08 58.57 55.77 54.10 53.04 51.77 59.48 64.71 65.78 65.19 63.76 62.78 61.87 61.49 61.50 61.35 61.15 61.29 61.47 61.73 61.62
58.04 58.69 60.42 61.90 62.58 60.04 61.08 58.58 56.75 54.91 54.05 52.52 51.09 52.72 53.52 52.92 52.10 53.34 59.30 62.99 66.16 65.81 64.45 63.48 62.62 61.81 61.65 61.82 61.98 62.07 62.04 62.24 62.27
56.80 58.01 59.15 59.46 58.89 57.75 56.63 55.62 54.48 53.84 53.19 51.79 49.89 49.37 51.03 52.67 51.92 50.17 57.58 62.29 66.00 65.90 65.46 64.63 64.11 63.50 62.93 62.64 62.62 62.63 62.63 62.65 62.67
56.23 57.61 58.18 58.31 57.33 56.74 55.70 55.06 54.99 53.70 52.76 51.32 50.28 50.66 51.05 52.05 51.84 49.45 55.01 59.50 65.13 65.42 65.59 65.59 65.35 65.38 65.12 64.57 63.77 63.28 63.15 63.17 63.14
56.45 56.81 57.38 57.25 56.84 56.58 56.64 55.58 55.18 54.31 53.26 52.52 50.58 49.69 49.56 49.63 49.97 49.66 49.84 56.73 62.94 65.22 64.03 64.67 65.20 65.40 65.47 65.54 65.64 65.84 64.79 63.90 64.07
58.10 56.48 55.77 56.01 55.03 55.47 55.16 54.31 53.24 52.51 51.96 51.58 51.45 51.09 49.86 49.58 48.63 48.39 48.25 49.50 57.95 63.27 63.62 63.99 65.14 65.59 64.94 65.32 65.68 66.70 66.47 65.87 65.46
56.68 56.34 55.74 54.78 54.43 54.22 53.47 53.85 53.07 52.29 51.80 52.72 51.85 53.14 52.75 52.14 50.59 50.26 49.64 48.93 49.73 54.20 61.65 63.29 64.09 64.75 64.59 64.13 64.61 66.04 65.99 65.80 65.87
56.93 56.63 56.91 55.42 54.51 54.65 54.71 54.71 53.93 54.64 53.76 53.68 53.91 53.39 53.49 53.70 54.07 51.19 50.24 49.44 50.30 49.80 53.59 58.10 60.93 62.04 63.66 63.12 63.08 64.85 65.26 64.94 65.07
57.58 58.01 57.30 56.45 55.59 55.44 53.92 54.57 54.15 54.97 55.32 55.32 55.57 55.58 55.02 55.54 55.13 54.90 54.99 52.97 50.97 50.30 50.59 50.72 52.87 58.84 61.41 63.00 63.09 64.13 64.41 64.18 64.37
57.78 58.44 58.20 56.86 56.97 57.61 56.84 55.49 54.63 54.70 52.81 51.75 54.43 54.48 54.57 54.74 55.45 55.75 55.04 55.23 54.51 52.34 51.12 50.83 50.79 51.67 58.16 60.88 62.66 63.50 64.13 64.23 64.10
59.43 58.90 59.00 58.29 57.73 57.61 57.42 55.63 55.58 55.28 54.02 53.00 53.65 52.02 54.71 55.65 55.59 56.09 55.55 55.33 55.85 54.97 53.47 52.53 51.82 51.45 51.08 52.55 59.12 61.39 63.17 63.00 63.86
60.57 60.72 59.80 59.82 58.16 58.39 58.19 57.11 55.25 55.51 57.26 55.34 54.83 51.72 50.68 49.30 50.47 52.60 55.10 55.40 54.99 54.71 54.69 54.50 54.06 53.99 52.92 53.69 54.26 57.22 59.73 61.82 62.93
60.32 61.43 61.05 60.28 59.95 58.51 58.99 59.14 57.75 57.13 55.97 58.07 56.57 57.04 56.56 52.85 52.24 53.11 50.50 52.86 53.76 54.42 54.88 55.02 55.33 55.21 54.06 54.40 54.39 55.38 57.21 59.63 62.33
56.67 57.68 58.66 59.53 60.47 60.02 59.78 60.00 59.15 59.11 58.44 57.87 57.61 56.87 55.96 56.20 54.24 52.45 54.34 54.66 52.90 53.76 53.89 54.60 54.99 55.15 54.97 54.42 53.92 55.81 57.69 59.83 61.59
MSLP
1014.57 1014.61 1014.65 1014.87 1014.93 1014.98 1015.00 1014.92 1014.69 1014.68 1014.61 1014.58 1014.82 1014.86 1014.91 1015.04 1015.17 1015.01 1014.75 1014.80 1014.58 1014.74 1014.78 1014.68 1014.67 1014.65 1014.60 1014.70 1014.77 1014.78 1014.65 1014.58 1014.45
1014.55 1014.62 1014.68 1014.80 1014.95 1014.98 1014.94 1014.87 1014.78 1014.62 1014.77 1014.74 1014.56 1014.67 1014.76 1014.93 1015.08 1014.97 1014.85 1014.66 1014.53 1014.70 1014.81 1014.77 1014.80 1014.83 1014.86 1014.90 1014.94 1014.93 1014.87 1014.86 1014.75
1014.39 1014.54 1014.63 1014.73 1014.86 1014.84 1014.79 1014.80 1014.75 1014.71 1014.74 1014.67 1014.49 1014.57 1014.66 1014.80 1014.82 1014.77 1014.86 1014.58 1014.47 1014.58 1014.71 1014.74 1014.78 1014.80 1014.82 1014.83 1014.90 1014.85 1014.82 1014.88 1014.81
1014.27 1014.42 1014.59 1014.56 1014.63 1014.63 1014.63 1014.66 1014.61 1014.54 1014.52 1014.52 1014.46 1014.52 1014.53 1014.69 1014.69 1014.57 1014.73 1014.31 1014.25 1014.35 1014.40 1014.43 1014.45 1014.48 1014.58 1014.71 1014.76 1014.75 1014.70 1014.76 1014.76
1014.26 1014.39 1014.40 1014.32 1014.45 1014.49 1014.46 1014.43 1014.34 1014.31 1014.33 1014.32 1014.37 1014.38 1014.41 1014.54 1014.74 1014.64 1014.53 1014.19 1013.93 1014.09 1014.30 1014.31 1014.28 1014.30 1014.38 1014.49 1014.53 1014.53 1014.46 1014.41 1014.39
1014.15 1014.19 1014.28 1014.20 1014.22 1014.20 1014.17 1014.15 1014.07 1014.01 1014.00 1014.01 1014.09 1014.19 1014.27 1014.38 1014.49 1014.45 1014.18 1013.95 1013.62 1013.63 1013.76 1013.83 1013.90 1013.87 1013.92 1013.97 1014.06 1014.12 1014.15 1014.06 1014.10
1014.03 1014.11 1014.14 1013.97 1013.73 1013.67 1013.74 1013.74 1013.72 1013.75 1013.95 1013.99 1013.90 1014.07 1014.13 1014.14 1014.06 1014.02 1013.76 1013.59 1013.26 1013.20 1013.33 1013.37 1013.42 1013.45 1013.43 1013.45 1013.52 1013.54 1013.59 1013.57 1013.57
1013.77 1013.86 1013.79 1013.64 1013.56 1013.66 1013.54 1013.58 1013.63 1013.71 1013.95 1014.06 1014.07 1014.00 1013.97 1013.90 1013.77 1013.55 1013.37 1013.18 1012.89 1012.66 1012.68 1012.81 1012.87 1012.88 1012.91 1012.88 1012.88 1012.88 1012.82 1012.93 1012.97
1013.53 1013.47 1013.28 1013.36 1013.41 1013.53 1013.60 1013.65 1013.67 1013.70 1013.68 1013.78 1013.81 1013.72 1013.63 1013.48 1013.35 1013.14 1012.91 1012.61 1012.30 1011.98 1011.92 1011.99 1012.12 1012.18 1012.20 1012.20 1012.23 1012.20 1012.25 1012.28 1012.26
1013.11 1013.03 1013.02 1012.94 1013.01 1013.15 1013.30 1013.37 1013.40 1013.46 1013.36 1013.26 1013.30 1013.15 1013.03 1012.90 1012.84 1012.62 1012.40 1012.22 1012.07 1011.75 1011.49 1011.41 1011.37 1011.33 1011.35 1011.41 1011.40 1011.46 1011.49 1011.54 1011.68
1012.57 1012.55 1012.52 1012.45 1012.64 1012.61 1012.66 1012.77 1012.86 1012.82 1012.88 1012.87 1012.78 1012.71 1012.54 1012.23 1011.95 1011.83 1011.63 1011.41 1011.21 1010.97 1010.75 1010.62 1010.60 1010.64 1010.56 1010.45 1010.44 1010.59 1010.67 1010.73 1010.83
1011.88 1012.09 1012.06 1012.14 1012.41 1012.43 1012.53 1012.59 1012.73 1012.71 1012.58 1012.37 1012.05 1011.79 1011.55 1011.56 1011.43 1011.18 1010.92 1010.74 1010.52 1010.31 1010.04 1009.88 1009.90 1009.82 1009.76 1009.62 1009.49 1009.58 1009.71 1009.85 1009.97
1011.86 1011.97 1011.95 1011.84 1011.91 1011.96 1012.05 1012.04 1012.05 1011.94 1011.81 1011.61 1011.45 1011.23 1010.97 1010.74 1010.38 1010.16 1010.07 1009.97 1009.82 1009.67 1009.50 1009.29 1009.10 1009.04 1008.95 1008.75 1008.65 1008.68 1008.79 1008.90 1008.90
1011.05 1011.11 1011.05 1011.05 1011.26 1011.28 1011.33 1011.34 1011.50 1011.34 1011.08 1010.91 1010.71 1010.50 1010.22 1009.90 1009.64 1009.31 1009.13 1008.93 1008.76 1008.70 1008.51 1008.36 1008.23 1008.05 1008.01 1008.02 1007.90 1007.84 1007.89 1007.92 1007.89
1010.23 1010.35 1010.33 1010.44 1010.66 1010.65 1010.76 1010.75 1010.69 1010.59 1010.41 1010.50 1010.06 1009.63 1009.32 1008.91 1008.54 1008.19 1007.99 1007.71 1007.50 1007.39 1007.27 1007.29 1007.27 1007.13 1007.00 1007.06 1007.03 1006.96 1006.80 1006.86 1006.91
1009.77 1009.75 1009.67 1009.71 1009.82 1009.54 1009.55 1009.72 1009.92 1009.81 1010.02 1010.24 1009.37 1008.98 1008.49 1007.98 1007.52 1007.43 1007.25 1006.85 1006.67 1006.52 1006.31 1006.16 1006.14 1005.93 1005.92 1005.79 1005.80 1005.69 1005.62 1005.60 1005.56
1009.07 1009.10 1008.99 1008.95 1008.99 1008.90 1008.84 1009.00 1009.04 1008.92 1009.09 1009.11 1008.80 1007.93 1006.99 1006.35 1006.17 1005.98 1005.75 1005.42 1005.47 1005.41 1005.40 1005.27 1004.95 1005.08 1005.04 1004.77 1004.62 1004.52 1004.42 1004.44 1004.40
1008.73 1008.57 1008.36 1008.12 1008.13 1007.93 1007.80 1008.03 1008.20 1008.02 1007.84 1008.08 1008.18 1007.38 1006.26 1006.03 1005.40 1005.08 1005.00 1004.77 1004.62 1004.26 1004.29 1004.33 1004.07 1003.87 1003.94 1003.77 1003.62 1003.38 1003.32 1003.20 1003.24
1008.63 1008.43 1008.16 1007.85 1007.64 1007.44 1007.05 1006.92 1006.96 1007.09 1006.86 1006.65 1006.74 1006.24 1005.87 1005.51 1004.54 1004.27 1004.09 1004.08 1003.73 1003.53 1003.45 1003.28 1003.00 1002.86 1002.89 1002.74 1002.37 1002.16 1002.26 1002.13 1002.04
1008.95 1008.65 1008.18 1007.71 1007.36 1007.01 1006.67 1006.39 1006.32 1006.06 1005.87 1005.68 1005.43 1005.16 1004.91 1004.71 1004.30 1003.10 1002.75 1002.56 1002.60 1002.40 1002.42 1002.23 1002.07 1002.16 1001.92 1001.86 1001.58 1001.32 1001.22 1001.15 1001.03
Wind_Speed
4 6 6 5 4 4 4 3 3 5 5 6 4 4 4 6 5 1 6 4 6 6 6 7 6 5 5 5 5 5 6 6 6
6 5 6 6 6 5 5 7 6 6 6 9 7 6 4 1 3 4 4 5 7 7 7 6 5 5 4 4 4 5 5 4 4
7 6 7 8 8 7 7 8 9 8 9 10 8 9 5 1 2 5 5 8 9 8 8 7 6 5 5 4 4 4 4 4 4
8 7 7 10 9 8 8 9 10 11 11 11 11 10 7 3 3 4 4 11 11 11 10 10 9 8 7 6 6 6 6 6 5
9 7 9 11 10 9 10 11 12 13 13 13 12 10 10 4 4 4 4 14 14 13 12 12 11 10 10 9 9 9 9 9 9
7 7 9 11 12 12 13 13 13 13 13 13 13 11 4 5 4 3 12 18 16 15 15 14 14 13 13 12 12 13 13 12 12
6 7 11 14 15 15 15 15 14 11 4 4 8 3 5 4 5 4 13 18 19 18 17 17 16 16 15 15 15 15 15 15 15
4 4 5 6 10 4 8 6 4 5 4 4 4 5 6 4 4 7 16 21 23 20 20 19 19 18 18 18 18 18 18 18 17
5 5 7 6 4 5 5 3 5 6 6 7 7 7 6 4 5 7 17 20 25 24 22 22 22 21 21 21 20 21 20 20 20
5 6 5 6 5 5 5 5 6 6 7 7 8 9 8 8 6 4 15 20 25 25 24 24 24 24 24 23 23 23 23 23 22
7 7 7 7 5 5 6 7 7 8 6 8 8 9 8 9 10 7 8 19 23 26 27 27 26 26 26 26 25 24 24 24 24
9 7 7 6 4 5 5 5 4 4 5 9 7 8 10 9 10 9 8 9 19 23 28 27 26 26 28 29 28 25 25 25 24
6 5 5 4 5 5 5 6 7 7 7 8 8 9 8 11 12 10 9 9 9 14 24 26 27 27 29 31 30 27 25 25 25
8 6 6 6 5 6 6 7 6 8 7 8 8 8 8 10 9 12 12 13 12 9 16 22 26 28 29 32 32 29 27 26 26
8 8 8 6 5 7 5 9 5 8 9 8 10 9 9 11 11 13 11 12 13 13 14 11 13 25 29 30 32 31 29 27 27
8 8 8 6 9 12 10 8 10 9 4 3 10 9 11 13 13 11 11 15 14 13 13 10 10 11 24 28 30 32 31 30 29
8 9 10 10 9 11 11 9 9 8 5 7 6 8 10 10 11 12 13 17 12 13 13 15 14 12 10 16 26 30 31 33 32
7 10 10 11 8 10 11 9 12 12 9 10 8 4 7 3 2 7 9 11 10 11 12 14 15 14 13 14 17 26 28 32 33
6 8 9 9 8 10 11 9 11 10 12 9 11 16 13 8 11 6 5 7 10 11 9 11 13 13 12 17 21 23 25 30 31
6 7 7 7 7 9 11 12 11 10 11 11 10 11 11 15 13 12 13 8 8 8 9 11 10 11 12 12 16 24 28 31 30
Wind_Direction
183 175 175 183 172 176 183 187 182 203 191 216 215 261 301 8 354 41 167 164 161 157 155 149 142 138 143 135 132 121 110 105 98
181 200 190 189 197 199 204 207 213 210 224 233 214 241 272 11 349 219 205 185 173 180 179 172 168 154 156 143 136 123 118 116 110
195 218 216 208 206 207 212 220 222 221 226 232 229 247 259 47 323 199 217 201 192 195 196 193 183 175 173 180 174 161 151 150 152
211 226 229 217 218 224 226 230 229 229 228 231 238 246 257 200 246 211 227 210 206 205 203 202 201 196 196 200 202 199 193 196 197
219 230 242 220 221 230 235 237 236 232 233 233 237 244 256 249 227 240 226 225 215 213 213 211 209 208 211 214 216 217 215 216 215
225 216 231 216 222 230 236 240 240 238 234 236 236 241 244 247 222 233 236 227 220 218 216 217 217 215 216 220 225 227 229 228 229
226 224 225 227 224 227 234 240 241 240 227 248 248 240 247 240 240 227 241 234 229 227 222 221 221 222 222 223 226 229 233 235 235
223 225 231 225 232 232 237 246 243 227 226 242 244 245 244 241 245 239 242 237 237 233 228 226 226 226 228 228 230 232 233 235 237
232 223 225 219 222 225 230 235 243 243 235 233 242 239 239 238 243 242 246 240 234 237 234 231 230 231 232 234 235 236 237 238 238
220 225 219 218 209 210 220 224 233 235 237 235 231 240 238 236 240 243 242 242 238 244 244 241 238 236 236 238 239 240 240 241 242
220 222 223 226 213 215 220 219 223 229 231 243 235 239 243 235 235 235 242 240 237 239 244 246 245 245 244 243 241 241 242 244 244
226 226 230 230 214 225 235 245 246 247 240 242 238 235 237 241 242 239 237 240 238 238 244 247 249 250 250 249 248 245 241 241 244
225 235 239 215 211 211 211 222 234 230 225 242 237 242 241 244 244 245 241 236 237 242 244 245 247 249 250 251 252 252 251 248 244
212 220 230 210 218 226 228 239 230 248 242 245 251 246 247 247 248 242 240 238 236 236 243 241 242 244 247 251 255 256 255 253 252
213 233 235 207 222 239 220 237 226 244 252 254 256 253 246 250 248 249 247 240 235 235 240 239 241 243 244 248 251 254 254 255 256
222 237 240 214 228 239 231 230 239 252 203 250 262 259 252 252 251 252 250 252 247 242 237 235 240 244 240 242 245 247 249 251 251
232 236 242 233 236 243 241 227 245 247 195 230 248 272 270 246 242 238 242 248 246 245 239 242 239 241 237 239 238 242 245 249 253
253 253 248 248 229 243 240 227 226 248 248 216 232 275 241 309 258 244 242 243 239 238 244 242 242 242 240 240 238 238 242 247 253
291 275 269 259 249 247 246 239 230 230 248 246 226 241 257 261 276 245 246 235 242 240 242 243 243 237 236 239 237 239 238 242 248
348 331 315 289 274 261 255 257 245 241 245 243 250 235 240 246 252 265 268 243 239 237 238 241 243 243 239 241 244 241 242 245 249